TimeCDT,TemperatureF,Dew PointF,Humidity,Sea Level PressureIn,VisibilityMPH,Wind Direction,Wind SpeedMPH,Gust SpeedMPH,PrecipitationIn,Events,Conditions,WindDirDegrees,DateUTC
12:53 AM,78.1,70.0,76,30.01,10.0,Calm,Calm,-,N/A,,Clear,0,2013-08-24 05:53:00
1:53 AM,73.9,69.1,85,30.01,10.0,ENE,3.5,-,N/A,,Clear,60,2013-08-24 06:53:00
2:53 AM,73.9,70.0,87,30.01,10.0,Calm,Calm,-,N/A,,Clear,0,2013-08-24 07:53:00
3:53 AM,73.9,70.0,87,30.01,10.0,Calm,Calm,-,N/A,,Clear,0,2013-08-24 08:53:00
4:53 AM,73.0,70.0,90,30.02,9.0,NE,4.6,-,N/A,,Clear,50,2013-08-24 09:53:00
5:53 AM,73.0,70.0,90,30.04,8.0,Calm,Calm,-,N/A,,Clear,0,2013-08-24 10:53:00
6:53 AM,71.1,70.0,96,30.05,6.0,ENE,4.6,-,N/A,,Clear,60,2013-08-24 11:53:00
7:53 AM,75.0,71.1,87,30.07,7.0,ENE,4.6,-,N/A,,Clear,70,2013-08-24 12:53:00
8:53 AM,79.0,71.1,77,30.09,10.0,ENE,6.9,-,N/A,,Clear,70,2013-08-24 13:53:00
9:53 AM,82.9,72.0,69,30.09,10.0,ENE,4.6,-,N/A,,Clear,70,2013-08-24 14:53:00
10:53 AM,88.0,71.1,57,30.09,10.0,Variable,5.8,-,N/A,,Clear,0,2013-08-24 15:53:00
11:53 AM,91.0,70.0,50,30.08,10.0,NE,6.9,-,N/A,,Partly Cloudy,50,2013-08-24 16:53:00
12:53 PM,93.0,69.1,45,30.07,10.0,Variable,5.8,-,N/A,,Partly Cloudy,0,2013-08-24 17:53:00
1:53 PM,93.0,68.0,44,30.06,10.0,Variable,5.8,-,N/A,,Scattered Clouds,0,2013-08-24 18:53:00
2:53 PM,93.0,66.9,42,30.04,10.0,East,8.1,-,N/A,,Partly Cloudy,80,2013-08-24 19:53:00
3:53 PM,93.0,66.9,42,30.02,10.0,ENE,6.9,-,N/A,,Partly Cloudy,70,2013-08-24 20:53:00
4:53 PM,95.0,66.9,40,30.01,10.0,East,11.5,-,N/A,,Partly Cloudy,100,2013-08-24 21:53:00
5:53 PM,95.0,66.0,38,30.01,10.0,SE,9.2,-,N/A,,Clear,140,2013-08-24 22:53:00
6:53 PM,93.0,66.9,42,30.00,10.0,East,4.6,-,N/A,,Clear,80,2013-08-24 23:53:00
7:53 PM,88.0,70.0,55,30.02,10.0,ENE,8.1,-,N/A,,Scattered Clouds,70,2013-08-25 00:53:00
8:53 PM,84.9,69.1,59,30.04,10.0,Calm,Calm,-,N/A,,Scattered Clouds,0,2013-08-25 01:53:00
9:53 PM,82.9,69.1,63,30.06,10.0,Calm,Calm,-,0.00,,Clear,0,2013-08-25 02:53:00
10:53 PM,82.0,69.1,65,30.07,10.0,ENE,4.6,-,N/A,,Clear,60,2013-08-25 03:53:00
11:53 PM,79.0,70.0,74,30.08,10.0,ENE,3.5,-,N/A,,Clear,60,2013-08-25 04:53:00